Location: Bazinghen
(50.8246°N, 1.6616°E)
Time: 18:32:17
(UTC+00:00)

STARLINK-1225 - Pass Details

Date: 09 April 2020
Orbit: 549 x 550 km, 53.0° (Epoch: 02 June)

Event Time Altitude Azimuth Distance (km) Brightness Sun altitude
Rises 19:02:40 0° 284° (WNW) 2,675 10.0 -4.3°
Reaches altitude 10° 19:04:54 10° 286° (WNW) 1,783 8.2 -4.6°
Maximum altitude 19:08:56 72° 12° (NNE) 563 3.7 -5.3°
Drops below altitude 10° 19:12:58 10° 97° (E) 1,779 5.6 -5.8°
Enters shadow 19:13:35 - 98° (E) 2,023 5.9 -5.9°
